TimeAKDT,TemperatureF,Dew PointF,Humidity,Sea Level PressureIn,VisibilityMPH,Wind Direction,Wind SpeedMPH,Gust SpeedMPH,PrecipitationIn,Events,Conditions,WindDirDegrees,DateUTC
12:53 AM,28.9,23.0,78,29.19,10.0,ENE,3.5,-,N/A,,Clear,60,2013-09-21 08:53:00
1:53 AM,28.9,21.9,75,29.17,10.0,NE,4.6,-,N/A,,Clear,50,2013-09-21 09:53:00
2:53 AM,28.9,21.9,75,29.15,10.0,NE,4.6,-,N/A,,Scattered Clouds,50,2013-09-21 10:53:00
3:53 AM,28.0,19.9,72,29.14,10.0,ENE,3.5,-,N/A,,Clear,60,2013-09-21 11:53:00
4:53 AM,25.0,19.9,81,29.14,10.0,Calm,Calm,-,N/A,,Clear,0,2013-09-21 12:53:00
5:53 AM,21.9,19.0,89,29.13,10.0,Calm,Calm,-,N/A,,Clear,0,2013-09-21 13:53:00
6:53 AM,21.9,18.0,85,29.14,10.0,Calm,Calm,-,N/A,,Clear,0,2013-09-21 14:53:00
7:53 AM,19.9,17.1,89,29.14,10.0,Calm,Calm,-,N/A,,Clear,0,2013-09-21 15:53:00
8:53 AM,24.1,19.9,84,29.15,10.0,Calm,Calm,-,N/A,,Clear,0,2013-09-21 16:53:00
9:53 AM,25.0,19.9,81,29.16,10.0,Calm,Calm,-,N/A,,Clear,0,2013-09-21 17:53:00
10:53 AM,28.0,23.0,81,29.17,10.0,Calm,Calm,-,N/A,,Overcast,0,2013-09-21 18:53:00
11:53 AM,30.9,24.1,76,29.17,10.0,Calm,Calm,-,N/A,,Overcast,0,2013-09-21 19:53:00
12:53 PM,35.1,21.9,59,29.18,10.0,Calm,Calm,-,N/A,,Overcast,0,2013-09-21 20:53:00
1:53 PM,37.0,23.0,57,29.18,10.0,Calm,Calm,-,N/A,,Overcast,0,2013-09-21 21:53:00
2:53 PM,39.0,21.0,49,29.18,10.0,Calm,Calm,-,N/A,,Overcast,0,2013-09-21 22:53:00
3:53 PM,39.0,19.9,46,29.19,10.0,NNW,5.8,-,N/A,,Mostly Cloudy,340,2013-09-21 23:53:00
4:53 PM,39.9,19.9,45,29.20,10.0,NW,6.9,-,N/A,,Mostly Cloudy,320,2013-09-22 00:53:00
5:53 PM,37.9,19.9,48,29.21,10.0,NW,5.8,-,N/A,,Mostly Cloudy,320,2013-09-22 01:53:00
6:53 PM,37.0,19.9,50,29.22,10.0,NNW,6.9,-,N/A,,Overcast,340,2013-09-22 02:53:00
7:53 PM,36.0,19.9,52,29.23,10.0,NNW,6.9,-,N/A,,Overcast,330,2013-09-22 03:53:00
8:53 PM,36.0,19.9,52,29.24,10.0,NNW,9.2,-,N/A,,Overcast,340,2013-09-22 04:53:00
9:53 PM,35.1,18.0,50,29.25,10.0,Variable,5.8,-,N/A,,Overcast,0,2013-09-22 05:53:00
10:53 PM,34.0,18.0,52,29.26,10.0,NNW,6.9,-,N/A,,Overcast,340,2013-09-22 06:53:00
11:53 PM,34.0,19.0,54,29.26,10.0,Calm,Calm,-,N/A,,Overcast,0,2013-09-22 07:53:00